loading
|
Showing default

OPS 0340, 2125

Orbit data source: Space-Track

OPS 0340, 2125 is a payload satellite owned by USAF SSD (US) in SSO that was launched on Thu, 31 Mar 1966 UTC via a THOR BURNER 1 launch vehicle from the Air Force Western Test Range (AFWTR). Payloads include a variety of satellites, spacecraft, and rockets equipped with specific instruments for various scientific and technological missions. These include communications satellites like Starlink; space stations such as the ISS; scientific satellites like the Hubble; Earth observation satellites from companies like Planet Labs, Umbra, and HawkEye 360; GPS; miniature CubeSats for education and research; and military/defense satellites.

Loading next visibility...
Loading greatness...
OPS 0340 details
Identifier
2125, 1966-026A
Orbit
SSO
Last TLE update12 hours ago
Origin
Flag of USUSAF SSD (US)
ManufacturerRCA/East Windsor
MissionDefense Weather
Bus & MotorP35?, Unknown motor
Mass72 kg wet, 72 kg dry
Launch date (UTC)
1966-03-31 (59 years ago)
Launch vehicle
THOR BURNER 1
Launch site
Air Force Western Test Range (AFWTR)
Object type
Payload
Rocket body
Debris
Shape & HBRCyl, 0.6 m
Radar Cross Section0.377 m², Medium (>0.1 m² and < 1m²)

Expand to show TLE details & history

TLE from 12 hours ago
0 OPS 0340
1 02125U 66026A   24278.47787210  .00003230  00000-0  59548-3 0  9991
2 02125  97.9920  96.4546 0150982  31.8142 329.2070 14.59051393 68979
Epoch: 2024-10-04T11:28Z
Definitive object data (Epoch: 2024-10-04T11:28:08.149Z)
Latitude-0.00004°
Longitude-89.22731°
Altitude607.889 km
Speed7.604 km/s
True Right ascension06h 25m 49s
True Declination0° 00' 00"
Sunlit
Object was in daylight at TLE epoch
Predictive object data (real-time)
Latitude62.01205°
Longitude-103.98692°
Altitude616.5 km
Speed7.605 km/s
Apparent Right ascension05h 18m 03s
Apparent Declination14° 16' 34"
Sunlit
Object is in daylight
Predictive observer data (real-time)
Local Sidereal Time17:12:12
Azimuth358.251° N
Elevation-35.791°
Doppler factor1
Orbital elements
Apogee800.077 km
Perigee586.544 km
Semi-major axis7,071.448 km
Eccentricity0.0150982
Inclination97.992°
RAAN96.4546°
Arg. of periapsis31.8142°
True anomaly328.30673°
Mean anomaly329.207°
Eccentric anomaly328.75834°
Mean motion3.6499 °/min
BSTAR0.00059548
Period98.63 mins
No data available

OPS 0340 Visibility forecast

Observer location: 39.9160978°, -105.1181434

OPS 0340 is not visible in the next 10 days
Span
Click to sort rows by Start time (UTC) header in descending order
Start Az.
Max El. time (UTC)
Max El. Az.
Max El.
End time (UTC)
End Az.